Flag for Spain Weather past 2 weeks in Valladolid, Spain

Now
46 °F

Sunny.


Feels Like: 42 °F
Forecast: 47 / 70 °F
Wind: 8 mph from Northeast

Location: Valladolid / Villanubla

Current Time: May 25, 2015 at 8:36:46 AM

Latest Report: May 25, 2015 at 8:00 AM


Visibility: 10 mi

Pressure: 30.15 "Hg

Humidity: 93%

Dew point: 45 °F

Location of ValladolidLocation

Historic Weather in Valladolid — Graph

°F

Valladolid temperature yesterday

Maximum temperature yesterday: 68 °F (at 4:00 PM)
Minimum temperature yesterday: 43 °F (at 7:00 AM)
Average temperature yesterday: 60 °F

Past Weeks' High & Low Weather Summary

 TemperatureHumidityPressure
High90 °F (May 13, 4:00 PM)100% (May 16, 7:00 AM)30.42 "Hg (May 16, 7:00 AM)
Low34 °F (May 20, 7:00 AM)12% (May 13, 4:00 PM)29.86 "Hg (May 18, 8:00 PM)
Average63 °F49%30.19 "Hg
* Reported May 10 7:00 AM — May 25 7:30 AM, Valladolid, Weather by CustomWeather, © 2015

Note: Actual official high and low records may vary slightly from our data, if they occured in-between our weather recording intervals... More about our weather records

Advertising

Valladolid weather history for previous 24 hours

 ConditionsComfort  
Time TempWeatherWind HumidityBarometerVisibility
7:30 AM
Mon, May 25
45 °FClear.8 mph100%30.15 "Hg10 mi
7:00 AM43 °FClear.6 mph100%30.15 "Hg4 mi
9:30 PM
Sun, May 24
57 °FSunny.18 mph63%30.09 "Hg10 mi
9:00 PM59 °FSunny.22 mph55%30.09 "Hg10 mi
8:30 PM61 °FPassing clouds.20 mph52%30.09 "HgN/A
8:00 PM63 °FPassing clouds.22 mph49%30.07 "HgN/A
7:30 PM64 °FPassing clouds.21 mph43%30.07 "HgN/A
7:00 PM66 °FPassing clouds.17 mph37%30.07 "HgN/A
6:30 PM68 °FPassing clouds.17 mph38%30.07 "HgN/A
6:00 PM68 °FPassing clouds.18 mph35%30.07 "HgN/A
5:30 PM68 °FPassing clouds.18 mph35%30.07 "HgN/A
5:00 PM68 °FPassing clouds.16 mph35%30.07 "HgN/A
4:30 PM68 °FPassing clouds.14 mph35%30.07 "HgN/A
4:00 PM68 °FPassing clouds.12 mph35%30.07 "HgN/A
3:30 PM66 °FPassing clouds.16 mph37%30.07 "HgN/A
3:00 PM66 °FPassing clouds.10 mph40%30.09 "HgN/A
2:30 PM66 °FPartly sunny.14 mph43%30.09 "HgN/A
2:00 PM64 °FPartly sunny.16 mph43%30.09 "HgN/A
1:30 PM64 °FScattered clouds.14 mph43%30.09 "HgN/A
1:00 PM64 °FScattered clouds.16 mph46%30.09 "HgN/A
12:30 PM61 °FScattered clouds.15 mph52%30.09 "HgN/A
12:00 PM61 °FPassing clouds.15 mph55%30.12 "HgN/A
11:30 AM59 °FPassing clouds.17 mph59%30.12 "HgN/A
11:00 AM59 °FScattered clouds.17 mph59%30.12 "HgN/A
10:30 AM57 °FScattered clouds.17 mph63%30.12 "HgN/A
10:00 AM55 °FSunny.18 mph67%30.12 "Hg10 mi
9:30 AM54 °FPassing clouds.17 mph72%30.12 "HgN/A
9:00 AM50 °FSunny.15 mph82%30.12 "Hg10 mi
8:30 AM48 °FPassing clouds.12 mph87%30.12 "HgN/A
8:00 AM46 °FSunny.10 mph93%30.12 "Hg10 mi
Weather by CustomWeather, © 2015

See weather overviewHow to use our weather pages